Overview Statistics Trail Chart Weather Telemetry Raw packets
 

This is the latest recevied weather packets stored in our database for station/object KF7SOJ. If no packets are shown the sender has not sent any weather packets the latest 10 day(s).

<< 35 36 37 38 39 40 41 >>
Time Temp. Humidity Pressure Rain* Wind** Luminosity Snow
1788375969 27.22° C 34% 924.6 hPa 0 mm - 894 W/m² -
1788375664 27.22° C 34% 924.7 hPa 0 mm - 894 W/m² -
1788375360 27.22° C 34% 924.9 hPa 0 mm - 864 W/m² -
1788375055 27.22° C 33% 925 hPa 0 mm - 895 W/m² -
1788374750 26.67° C 33% 925.1 hPa 0 mm - 959 W/m² -
1788374445 26.11° C 35% 925.3 hPa 0 mm - 469 W/m² -
1788374142 25.56° C 36% 925.3 hPa 0 mm - 592 W/m² -
1788373838 26.67° C 34% 925.4 hPa 0 mm - 541 W/m² -
1788373534 26.11° C 35% 925.4 hPa 0 mm - 893 W/m² -
1788373230 26.11° C 34% 925.6 hPa 0 mm - 791 W/m² -
1788372926 25.56° C 34% 925.6 hPa 0 mm - 418 W/m² -
1788372620 26.11° C 33% 925.7 hPa 0 mm - 660 W/m² -
1788372320 25.56° C 34% 925.8 hPa 0 mm - 900 W/m² -
1788372016 26.11° C 35% 925.9 hPa 0 mm - 539 W/m² -
1788371716 25.56° C 34% 925.9 hPa 0 mm - 723 W/m² -
1788371412 26.11° C 34% 925.8 hPa 0 mm - 751 W/m² -
1788371109 25.56° C 34% 926 hPa 0 mm - 655 W/m² -
1788370804 26.11° C 33% 925.9 hPa 0 mm - 793 W/m² -
1788370503 25° C 35% 926 hPa 0 mm - 779 W/m² -
1788370198 24.44° C 36% 926 hPa 0 mm - 741 W/m² -
1788369897 23.89° C 38% 926.1 hPa 0 mm - 817 W/m² -
1788369593 23.89° C 40% 926.1 hPa 0 mm - 817 W/m² -
1788369288 23.33° C 40% 926.1 hPa 0 mm - 490 W/m² -
1788368984 22.78° C 42% 926.2 hPa 0 mm - 811 W/m² -
1788368679 21.67° C 44% 926.1 hPa 0 mm - 613 W/m² -

* Rain latest hour (hover to see other rain measurements)
** Current wind speed in m/s (hover to see current wind gust speed)